Location: El Para�so
(10.4896°N, 66.9245°W)
Time: 19:47:57
(UTC+00:00)

VEP-3 - Pass Details

Date: 08 August 2020
Orbit: 1001 x 33743 km, 23.8° (Epoch: 01 October)

Event Time Altitude Azimuth Distance (km) Brightness Sun altitude
Rises 23:27:44 0° 298° (WNW) 3,965 7.7 -10.0°
Reaches altitude 10° 23:30:31 10° 310° (NW) 2,775 6.1 -10.6°
Maximum altitude 23:35:17 32° 17° (NNE) 1,819 3.9 -11.7°
Drops below altitude 10° 23:43:04 10° 80° (E) 4,535 5.4 -13.6°
Enters shadow 23:43:19 10° 81° (E) 4,646 5.5 -13.6°
